TimeCDT,TemperatureF,Dew PointF,Humidity,Sea Level PressureIn,VisibilityMPH,Wind Direction,Wind SpeedMPH,Gust SpeedMPH,PrecipitationIn,Events,Conditions,WindDirDegrees,DateUTC
12:15 AM,65.8,54.0,65,29.77,10.0,South,6.9,-,N/A,,Clear,180,2013-10-01 05:15:00
12:35 AM,65.8,54.1,66,29.77,10.0,South,9.2,-,N/A,,Clear,180,2013-10-01 05:35:00
12:55 AM,65.5,54.1,67,29.77,10.0,South,8.1,-,N/A,,Clear,180,2013-10-01 05:55:00
1:15 AM,65.7,54.1,66,29.77,10.0,South,6.9,-,N/A,,Clear,180,2013-10-01 06:15:00
1:35 AM,65.5,54.1,67,29.77,10.0,South,5.8,-,N/A,,Clear,180,2013-10-01 06:35:00
1:55 AM,65.3,54.1,67,29.77,10.0,South,8.1,-,N/A,,Clear,180,2013-10-01 06:55:00
2:15 AM,65.3,54.1,67,29.78,10.0,South,9.2,-,N/A,,Clear,180,2013-10-01 07:15:00
2:35 AM,64.8,54.1,68,29.78,10.0,South,9.2,-,N/A,,Clear,180,2013-10-01 07:35:00
2:55 AM,64.9,54.1,68,29.78,10.0,South,9.2,-,N/A,,Clear,190,2013-10-01 07:55:00
3:15 AM,65.3,54.0,67,29.77,10.0,South,11.5,-,N/A,,Clear,180,2013-10-01 08:15:00
3:35 AM,65.5,53.8,66,29.79,10.0,SSW,6.9,-,N/A,,Clear,200,2013-10-01 08:35:00
3:55 AM,63.5,53.6,70,29.81,10.0,WSW,3.5,-,N/A,,Clear,240,2013-10-01 08:55:00
4:15 AM,60.4,53.6,78,29.82,10.0,WSW,4.6,-,N/A,,Clear,240,2013-10-01 09:15:00
4:35 AM,61.0,53.8,77,29.84,10.0,WNW,6.9,-,N/A,,Clear,300,2013-10-01 09:35:00
4:55 AM,60.6,54.0,79,29.82,10.0,SSW,5.8,-,N/A,,Clear,200,2013-10-01 09:55:00
5:15 AM,62.1,54.0,75,29.83,10.0,Calm,Calm,-,N/A,,Clear,0,2013-10-01 10:15:00
5:35 AM,60.4,53.8,79,29.84,10.0,SW,3.5,-,N/A,,Clear,220,2013-10-01 10:35:00
5:55 AM,59.9,53.6,80,29.84,10.0,SW,3.5,-,N/A,,Clear,230,2013-10-01 10:55:00
6:15 AM,58.6,53.6,83,29.85,10.0,Calm,Calm,-,N/A,,Clear,0,2013-10-01 11:15:00
6:35 AM,57.7,53.4,85,29.86,10.0,Calm,Calm,-,N/A,,Clear,0,2013-10-01 11:35:00
6:55 AM,55.8,52.7,89,29.87,10.0,Calm,Calm,-,N/A,,Clear,0,2013-10-01 11:55:00
7:15 AM,55.0,52.7,92,29.88,10.0,West,4.6,-,N/A,,Clear,280,2013-10-01 12:15:00
7:35 AM,53.1,52.0,96,29.89,10.0,WNW,3.5,-,N/A,,Clear,300,2013-10-01 12:35:00
7:55 AM,53.8,52.5,95,29.89,10.0,Calm,Calm,-,N/A,,Clear,0,2013-10-01 12:55:00
8:15 AM,55.9,54.0,93,29.90,10.0,WNW,3.5,-,N/A,,Clear,290,2013-10-01 13:15:00
8:35 AM,60.4,53.4,78,29.91,10.0,NW,10.4,-,N/A,,Clear,320,2013-10-01 13:35:00
8:55 AM,62.2,52.5,70,29.92,10.0,NW,11.5,20.7,N/A,,Clear,320,2013-10-01 13:55:00
9:15 AM,63.7,51.4,64,29.93,10.0,NNW,5.8,16.1,N/A,,Clear,340,2013-10-01 14:15:00
9:35 AM,64.9,50.9,60,29.94,10.0,NNW,9.2,17.3,N/A,,Clear,340,2013-10-01 14:35:00
9:55 AM,66.9,50.2,55,29.94,10.0,NNW,8.1,-,N/A,,Clear,340,2013-10-01 14:55:00
10:15 AM,68.0,48.4,49,29.95,10.0,North,9.2,-,N/A,,Clear,350,2013-10-01 15:15:00
10:35 AM,68.9,47.3,46,29.96,10.0,North,8.1,16.1,N/A,,Clear,350,2013-10-01 15:35:00
10:55 AM,70.5,46.0,42,29.97,10.0,North,8.1,-,N/A,,Clear,360,2013-10-01 15:55:00
11:15 AM,72.0,46.2,40,29.97,10.0,North,4.6,-,N/A,,Clear,10,2013-10-01 16:15:00
11:35 AM,73.6,45.5,37,29.97,10.0,North,9.2,-,N/A,,Clear,360,2013-10-01 16:35:00
11:55 AM,73.9,44.4,35,29.97,10.0,NNE,8.1,-,N/A,,Clear,20,2013-10-01 16:55:00
12:15 PM,75.4,43.9,32,29.97,10.0,North,4.6,-,N/A,,Clear,360,2013-10-01 17:15:00
12:35 PM,76.3,42.6,30,29.97,10.0,North,4.6,-,N/A,,Clear,10,2013-10-01 17:35:00
12:55 PM,77.0,41.9,28,29.97,10.0,NE,4.6,-,N/A,,Clear,40,2013-10-01 17:55:00
1:15 PM,78.1,39.9,25,29.97,10.0,NNE,6.9,-,N/A,,Clear,20,2013-10-01 18:15:00
1:35 PM,78.6,39.9,25,29.96,10.0,North,6.9,-,N/A,,Clear,10,2013-10-01 18:35:00
1:55 PM,79.0,41.4,26,29.96,10.0,North,6.9,-,N/A,,Clear,360,2013-10-01 18:55:00
2:15 PM,79.7,40.3,24,29.95,10.0,NNE,8.1,-,N/A,,Clear,30,2013-10-01 19:15:00
2:35 PM,80.1,40.3,24,29.95,10.0,NNE,8.1,-,N/A,,Clear,20,2013-10-01 19:35:00
2:55 PM,79.7,38.8,23,29.94,10.0,NE,6.9,-,N/A,,Clear,50,2013-10-01 19:55:00
3:15 PM,80.2,42.1,26,29.94,7.0,North,6.9,-,N/A,,Clear,360,2013-10-01 20:15:00
3:35 PM,80.8,41.4,25,29.94,10.0,NE,5.8,-,N/A,,Clear,50,2013-10-01 20:35:00
3:55 PM,79.9,41.2,25,29.94,10.0,NNE,5.8,-,N/A,,Clear,30,2013-10-01 20:55:00
4:15 PM,80.6,42.4,26,29.94,10.0,NNE,6.9,-,N/A,,Clear,20,2013-10-01 21:15:00
4:35 PM,79.9,42.3,26,29.94,10.0,ENE,9.2,-,N/A,,Clear,60,2013-10-01 21:35:00
4:55 PM,80.2,41.5,25,29.94,10.0,NE,9.2,-,N/A,,Clear,50,2013-10-01 21:55:00
5:15 PM,79.7,41.7,26,29.94,10.0,NNE,8.1,-,N/A,,Clear,30,2013-10-01 22:15:00
5:35 PM,78.8,41.4,26,29.94,10.0,NE,8.1,-,N/A,,Clear,40,2013-10-01 22:35:00
5:55 PM,78.8,42.3,27,29.94,10.0,NE,5.8,-,N/A,,Clear,50,2013-10-01 22:55:00
6:15 PM,77.9,42.4,28,29.94,10.0,ENE,5.8,-,N/A,,Clear,60,2013-10-01 23:15:00
6:35 PM,76.3,43.5,31,29.94,10.0,NE,4.6,-,N/A,,Clear,50,2013-10-01 23:35:00
6:55 PM,75.0,43.9,33,29.94,10.0,Calm,Calm,-,N/A,,Clear,0,2013-10-01 23:55:00
7:15 PM,73.0,45.0,37,29.94,10.0,Calm,Calm,-,N/A,,Clear,0,2013-10-02 00:15:00
7:35 PM,70.2,45.0,40,29.94,10.0,Calm,Calm,-,N/A,,Clear,0,2013-10-02 00:35:00
7:55 PM,63.9,46.4,53,29.95,7.0,Calm,Calm,-,N/A,,Clear,0,2013-10-02 00:55:00
8:15 PM,62.2,45.7,55,29.96,10.0,Calm,Calm,-,N/A,,Clear,0,2013-10-02 01:15:00
8:35 PM,62.6,46.4,55,29.96,10.0,Calm,Calm,-,N/A,,Clear,0,2013-10-02 01:35:00
8:55 PM,62.6,48.2,59,29.96,10.0,Calm,Calm,-,N/A,,Clear,0,2013-10-02 01:55:00
9:15 PM,62.6,46.4,55,29.96,10.0,Calm,Calm,-,N/A,,Clear,0,2013-10-02 02:15:00
9:35 PM,61.0,46.2,58,29.96,10.0,Calm,Calm,-,N/A,,Clear,0,2013-10-02 02:35:00
9:55 PM,60.8,46.2,59,29.96,10.0,Calm,Calm,-,N/A,,Clear,0,2013-10-02 02:55:00
10:15 PM,59.5,46.6,62,29.97,10.0,Calm,Calm,-,N/A,,Clear,0,2013-10-02 03:15:00
10:35 PM,58.6,45.9,63,29.97,10.0,Calm,Calm,-,N/A,,Clear,0,2013-10-02 03:35:00
10:55 PM,59.2,45.7,61,29.97,10.0,Calm,Calm,-,N/A,,Clear,0,2013-10-02 03:55:00
11:15 PM,58.6,47.1,66,29.97,10.0,Calm,Calm,-,N/A,,Clear,0,2013-10-02 04:15:00
11:35 PM,58.6,46.4,64,29.97,10.0,Calm,Calm,-,N/A,,Clear,0,2013-10-02 04:35:00
11:55 PM,57.6,46.9,68,29.97,7.0,Calm,Calm,-,N/A,,Clear,0,2013-10-02 04:55:00